Regional Weather Roundup
Issued by NWS

Home | Current Version | Previous Version | Graphics & Text | Print | Product List | Glossary On
Versions: 1 2 3 4 5 6 7 8 9 10 11 12 13 14 15 16 17 18 19 20 21 22 23 24 25 26 27 28 29 30 31 32 33 34 35 36 37 38 39 40 41 42 43 44 45 46 47 48 49 50
000
ASUS45 KCYS 221810
RWRWY

WYOMING REGIONAL WEATHER ROUNDUP
NATIONAL WEATHER SERVICE CHEYENNE WY
1200 PM MDT TUE JUL 22 2014

NOTE:  "FAIR" INDICATES FEW OR NO CLOUDS BELOW 12,000 FEET
WITH NO SIGNIFICANT WEATHER AND/OR OBSTRUCTIONS TO VISIBILITY.

WYZ001-221900-
YELLOWSTONE NATIONAL PARK

CITY           SKY/WX    TMP DP  RH WIND       PRES   REMARKS
LK YELLOWSTONE   N/A     69  43  38 VRB3      30.51R
6HR MIN TEMP:  39; 6HR MAX TEMP:  69;

W YELLOWSTONE  NOT AVBL

$$
WYZ002>013-054>058-071-098>099-221900-
NORTHERN WYOMING

CITY           SKY/WX    TMP DP  RH WIND       PRES   REMARKS
JACKSON        SUNNY     73  46  38 CALM      30.39F
CODY           MOSUNNY   84  43  23 SE8       30.24R
GREYBULL       SUNNY     89  45  21 S9        30.18S
6HR MIN TEMP:  61; 6HR MAX TEMP:  89; 6HR PCP: TRACE;

WORLAND        SUNNY     90  43  19 S9        30.19F
6HR MIN TEMP:  56; 6HR MAX TEMP:  90;

SHERIDAN       SUNNY     81  57  43 VRB3      30.19F
6HR MIN TEMP:  53; 6HR MAX TEMP:  81;

BUFFALO        SUNNY     85  45  24 S17       30.25F
6HR MIN TEMP:  64; 6HR MAX TEMP:  88;

GILLETTE       SUNNY     87  54  32 S15G21    30.24F
6HR MIN TEMP:  62; 6HR MAX TEMP:  87;

HULETT         FAIR      82  55  39 MISG      30.27
NEWCASTLE      FAIR      82  46  28 MISG      30.28

$$
WYZ014>020-022>026-101>103-221900-
CENTRAL WYOMING

CITY           SKY/WX    TMP DP  RH WIND       PRES   REMARKS
BIG PINEY      SUNNY     74  41  30 VRB6      30.45R
6HR MIN TEMP:  44; 6HR MAX TEMP:  75;

PINEDALE       CLEAR     75  34  22 S5        30.45S
DUBOIS         FAIR      77  32  19 NW16G26   30.42R
LANDER         SUNNY     81  43  26 NW5       30.29F
6HR MIN TEMP:  56; 6HR MAX TEMP:  82;

RIVERTON       SUNNY     79  43  27 VRB6      30.31F
6HR MIN TEMP:  56; 6HR MAX TEMP:  80;

CASPER         SUNNY     82  50  32 S5        30.31S
6HR MIN TEMP:  54; 6HR MAX TEMP:  82;

DOUGLAS        SUNNY     84  54  35 SE15      30.30F
6HR MIN TEMP:  58; 6HR MAX TEMP:  84;


$$
WYZ021-027>030-104>119-221900-
SOUTHERN WYOMING

CITY           SKY/WX    TMP DP  RH WIND       PRES   REMARKS
EVANSTON       SUNNY     79  37  22 SW12G17   30.44S
6HR MIN TEMP:  55; 6HR MAX TEMP:  79;

KEMMERER       CLEAR     77  36  22 W10       30.46S
ROCK SPRINGS   SUNNY     84  32  15 VRB5      30.40F
6HR MIN TEMP:  60; 6HR MAX TEMP:  84;

DIXON          FAIR      87  27  11 S5        30.43R
RAWLINS        SUNNY     85  30  13 VRB3      30.41F
6HR MIN TEMP:  50; 6HR MAX TEMP:  85;

SARATOGA       FAIR      84  32  15 E7        30.43F
LARAMIE        SUNNY     80  42  25 VRB3      30.44F
6HR MIN TEMP:  50; 6HR MAX TEMP:  80;

CHEYENNE       SUNNY     80  55  42 VRB6      30.39S
6HR MIN TEMP:  61; 6HR MAX TEMP:  80;

TORRINGTON     SUNNY     85  57  38 SE13      30.26F
6HR MIN TEMP:  63; 6HR MAX TEMP:  86;

PINE BLUFFS    FAIR      82  52  34 S8        30.33S

$$



USA.gov is the U.S. government's official web portal to all federal, state and local government web resources and services.